Regional Weather Roundup
Issued by NWS Albany, NY

Home | Current Version | Previous Version | Text Only | Print | Product List | Glossary On
Versions: 1 2 3 4 5 6 7 8 9 10 11 12 13 14 15 16 17 18 19 20 21 22 23 24 25 26 27 28 29 30 31 32 33 34 35 36 37 38 39 40 41 42 43 44 45 46 47 48 49 50
000
ASUS41 KALY 241610
RWRALY

NEW YORK STATE HOURLY WEATHER ROUNDUP
NATIONAL WEATHER SERVICE ALBANY NY
1200 PM EDT THU JUL 24 2014

NOTE: "FAIR" INDICATES FEW OR NO CLOUDS BELOW 12,000 FEET WITH NO
SIGNIFICANT WEATHER AND/OR NO OBSTRUCTIONS TO VISIBILITY.

NYZ032-033-038>043-046>054-057>066-NYZ062>081-241700-
EAST


CITY           SKY/WX    TMP DP  RH WIND       PRES   REMARKS
ALBANY         PTSUNNY   74  58  57 N10       29.92S
GLENS FALLS    MOSUNNY   70  56  61 E8        29.92S
POUGHKEEPSIE   PTSUNNY   75  60  59 N13       29.90R
NEWBURGH       PTSUNNY   73  61  64 NE12      29.92R
MONTGOMERY     CLOUDY    75  60  59 N8        29.90S
WHITE PLAINS   PTSUNNY   74  60  61 N14       29.88S
ISLIP          CLOUDY    80  63  55 NW15      29.84S
NEW YORK CITY  PTSUNNY   76  60  57 N13       29.86S
CENTRAL PARK   CLOUDY    75  62  64 VRB6      29.90S
$$

NYZ005>009-017-018-044>046-055-056-241700-
CENTRAL


CITY           SKY/WX    TMP DP  RH WIND       PRES   REMARKS
FULTON         MOSUNNY   67  48  50 N12G20    30.02S
SYRACUSE       PTSUNNY   70  50  49 NW12G20   30.01R
ROME           PTSUNNY   68  55  63 W10       29.98S
ELMIRA         CLOUDY    68  55  63 NE6       30.01R
BINGHAMTON     PTSUNNY   68  51  54 N15       30.00R
MONTICELLO     MOSUNNY   72  55  56 N14       29.96S
$$

NYZ026>034-041>043-241700-
NORTH


CITY           SKY/WX    TMP DP  RH WIND       PRES   REMARKS
WATERTOWN      SUNNY     68  46  45 N8        30.01S
FORT DRUM      NOT AVBL
MASSENA        MOSUNNY   65  50  58 NW5       29.99S
SARANAC LAKE   PTSUNNY   62  49  62 MISG      29.97R
PLATTSBURGH    PTSUNNY   67  50  54 N10       29.94F
$$

NYZ001>004-010>016-019>021-241700-
WEST


CITY           SKY/WX    TMP DP  RH WIND       PRES   REMARKS
NIAGARA FALLS  MOSUNNY   68  47  46 N13       30.07R
BUFFALO        MOSUNNY   67  47  48 NE12      30.07R
DUNKIRK        SUNNY     67  49  52 N9        30.07S
JAMESTOWN      PTSUNNY   63  50  63 N9        30.07S
WELLSVILLE     PTSUNNY   67  50  54 N8        30.08R
ROCHESTER      MOSUNNY   67  46  47 N10G17    30.06R
PENN YAN       CLOUDY    65  50  58 NW9       30.04R
$$

             KEY
       WCI = WIND CHILL INDEX
       VSB = VISIBILITY
       HX  = HEAT INDEX
$$



USA.gov is the U.S. government's official web portal to all federal, state and local government web resources and services.